Regional Weather Roundup
Issued by NWS

Home | Current Version | Previous Version | Text Only | Print | Product List | Glossary Off
Versions: 1 2 3 4 5 6 7 8 9 10 11 12 13 14 15 16 17 18 19 20 21 22 23 24 25 26 27 28 29 30 31 32 33 34 35 36 37 38 39 40 41 42 43 44 45 46 47 48 49 50

000
ASUS43 KDMX 022007
RWRIA

WEATHER ROUNDUP FOR IOWA
NATIONAL WEATHER SERVICE DES MOINES IA
300 PM CDT SUN AUG 02 2015

NOTE: "FAIR" INDICATES FEW OR NO CLOUDS BELOW 12,000 FEET WITH NO
SIGNIFICANT WEATHER AND/OR OBSTRUCTIONS TO VISIBILITY.

* - THESE STATIONS ARE NOT NWS STATIONS...THUS NOT UNDER NWS
QUALITY CONTROL.  THEY ALSO DO NOT REPORT WEATHER SUCH
AS PRECIPITATION OR FOG.

IAZ001>003-012>014-020>022-031>034-043>046-022100-
   NORTHWEST IOWA

CITY           SKY/WX    TMP DP  RH WIND       PRES   REMARKS
CARROLL *      SUNNY     88  77  70 W14G21    29.79R HX 100
CHEROKEE *     SUNNY     84  72  65 NW7       29.81S HX  89
DENISON *      SUNNY     86  75  70 W9G17     29.80R HX  95
LE MARS *      SUNNY     86  72  62 NW10      29.83R HX  92
ORANGE CITY *  SUNNY     84  68  58 N8        29.83S HX  87
SHELDON *      SUNNY     84  72  65 MISG      29.81S HX  89
SPENCER        SUNNY     89  65  44 N13G22    29.81R HX  91
STORM LAKE *   SUNNY     84  72  65 NW10      29.83R HX  89
$$

IAZ055>058-069>071-079>083-090>094-022100-
   SOUTHWEST IOWA

CITY           SKY/WX    TMP DP  RH WIND       PRES   REMARKS
ATLANTIC *     SUNNY     90  77  66 SW16      29.80F HX 102
AUDUBON *      SUNNY     90  77  66 SW10      29.80F HX 102
CLARINDA *     SUNNY     90  77  66 SW13      29.85S HX 102
COUNCIL BLFS * SUNNY     93  73  52 MISG      29.82S HX 102
CRESTON *      SUNNY     88  75  66 SW17G24   29.84F HX  97
HARLAN  *      SUNNY     88  77  70 SW14      29.82F HX 100
LAMONI         SUNNY     89  74  60 SW16G25   29.84F HX  98
RED OAK *      SUNNY     90  77  66 SW16      29.82F HX 102
SHENANDOAH *   SUNNY     90  77  66 SW14      29.83F HX 102
$$

IAZ047>049-059>061-072>074-084-022100-
   CENTRAL IOWA

CITY           SKY/WX    TMP DP  RH WIND       PRES   REMARKS
AMES           SUNNY     88  74  63 W15       29.76S HX  96
ANKENY *       SUNNY     91  75  59 W13G22    29.77S HX 102
CHARITON *     SUNNY     90  73  58 W14G22    29.81F HX  98
DES MOINES     MOSUNNY   93  72  50 W17       29.77S HX 101
GRINNELL*      SUNNY     90  73  58 SW20      29.78R HX  98
KNOXVILLE *    SUNNY     90  73  58 SW13G22   29.78S HX  98
MARSHALLTOWN   MOSUNNY   88  76  67 SW15G23   29.75S HX  99
PELLA *        SUNNY     91  77  62 SW14G21   29.79S HX 105
PERRY *          N/A     90  77  66 SW10G18   29.77F HX 102
$$

IAZ004>006-015-016-023>025-035-036-022100-
   NORTH CENTRAL IOWA

CITY           SKY/WX    TMP DP  RH WIND       PRES   REMARKS
ALGONA *       SUNNY     88  68  51 NW13      29.78R HX  91
CLARION *      SUNNY     88  75  66 W15       29.76S HX  97
ESTHERVILLE    SUNNY     85  66  53 NW12G22   29.79R HX  87
FORT DODGE *   SUNNY     88  73  62 W13G18    29.78S HX  96
MASON CITY     SUNNY     89  70  53 W20G26    29.76S HX  94
FOREST CITY *  SUNNY     86  68  54 NW13      29.75S HX  89
IOWA FALLS *     N/A     88  75  66 W15       29.77S HX  97
$$

IAZ007>011-017>019-026>030-037>042-050>054-066-022100-
   NORTHEAST IOWA

CITY           SKY/WX    TMP DP  RH WIND       PRES   REMARKS
CEDAR RAPIDS   MOSUNNY   88  77  69 SW17G28   29.74F HX 100
CHARLES CITY * MOSUNNY   86  73  66 W17G24    29.74R HX  93
CLINTON *      SUNNY     90  73  58 SW20G29   29.76F HX  98
DECORAH *      SUNNY     88  68  51 W13G28    29.69R HX  91
DUBUQUE        SUNNY     88  72  58 W23G32    29.71F HX  94
MONTICELLO *   SUNNY     90  73  58 SW18G28   29.72F HX  98
OELWEIN *      SUNNY     88  75  66 SW14G22   29.72F HX  97
WATERLOO       SUNNY     89  75  63 W17       29.72S HX  99
$$

IAZ064-065-067-068-078-022100-
   EAST CENTRAL IOWA

CITY           SKY/WX    TMP DP  RH WIND       PRES   REMARKS
DAVENPORT      SUNNY     88  72  58 SW16G26   29.76F HX  94
IOWA CITY      SUNNY     90  74  59 SW17      29.76F HX  99
MT. PLEASANT * MOSUNNY   91  68  46 SW17G24   29.80F HX  95
MUSCATINE *    MOSUNNY   91  73  55 SW17G23   29.77F HX 100
QUAD CITIES    MOSUNNY   91  72  53 SW14G23   29.75F HX  98
$$

IAZ062-063-075>077-085>089-095>099-022100-
   SOUTHEAST IOWA

CITY           SKY/WX    TMP DP  RH WIND       PRES   REMARKS
BURLINGTON     MOSUNNY   89  74  60 SW16G23   29.80F HX  98
FAIRFIELD *    SUNNY     88  73  62 SW14G21   29.80F HX  96
FORT MADISON * SUNNY     88  73  62 SW13G18   29.82F HX  96
KEOKUK *       SUNNY     90  73  58 SW15G23   29.81F HX  98
OSKALOOSA *      N/A     90  73  58 SW15      29.80S HX  98
CENTERVILLE *  SUNNY     88  73  62 SW17G23   29.84F HX  96
OTTUMWA        SUNNY     88  76  67 SW17G24   29.78F HX  99
WASHINGTON *   SUNNY     88  75  66 W15G22    29.79F HX  97
$$

ABBREVIATIONS USED IN REMARKS
   TC - TEMPERATURES IN CELSIUS
  WCI - WIND CHILL INDEX
   HX - HEAT INDEX
  VSB - VISIBILITY
$$




USA.gov is the U.S. government's official web portal to all federal, state and local government web resources and services.